Date,TemperatureHighF,TemperatureAvgF,TemperatureLowF,DewpointHighF,DewpointAvgF,DewpointLowF,HumidityHigh,HumidityAvg,HumidityLow,PressureMaxIn,PressureMinIn,WindSpeedMaxMPH,WindSpeedAvgMPH,GustSpeedMaxMPH,PrecipitationSumIn
2013-8-1,85,82,79,73,72,70,79,70,61,30.06,29.95,12,8,20,0.00
2013-8-2,86,79,74,75,72,67,94,79,57,30.05,29.92,9,4,24,0.00
2013-8-3,84,77,72,77,73,70,95,88,74,30.12,30.03,9,3,24,0.00
2013-8-4,89,78,72,76,73,70,95,85,60,30.12,29.98,16,3,30,0.00
2013-8-5,87,79,75,77,74,70,96,85,66,30.04,29.95,10,3,21,0.00
2013-8-6,86,80,74,75,74,71,95,81,68,29.98,29.90,9,4,15,0.00
2013-8-7,85,81,77,76,74,72,91,78,68,29.97,29.91,15,6,24,0.00
2013-8-8,86,83,81,75,74,71,79,72,62,30.02,29.93,13,10,20,0.00
2013-8-9,85,82,80,75,72,70,81,72,63,30.07,29.96,14,9,23,0.00
2013-8-10,86,83,80,75,74,72,81,74,68,30.11,30.04,13,9,20,0.00
2013-8-11,85,83,81,76,74,72,79,74,68,30.13,30.07,11,7,18,0.00
2013-8-12,85,83,78,74,72,70,79,71,64,30.11,30.02,8,5,15,0.00
2013-8-13,86,81,80,75,71,-100,82,73,67,30.05,29.95,12,7,20,0.00
2013-8-14,86,79,77,75,68,-100,90,74,63,30.02,29.93,12,6,18,0.00
2013-8-15,83,74,81,75,56,-100,82,72,68,30.06,29.96,10,5,15,0.00
2013-8-16,86,79,77,77,70,-100,89,79,70,30.05,29.98,11,5,19,0.00
2013-8-17,86,84,82,77,76,75,85,77,69,30.08,30.00,12,8,19,0.00
2013-8-18,86,82,77,77,72,-100,86,74,66,30.08,30.00,13,9,20,0.00
2013-8-19,86,78,81,76,60,-100,83,75,69,30.08,29.97,14,8,22,0.00
2013-8-20,86,81,80,75,70,-100,80,73,68,30.05,29.99,11,8,19,0.00
2013-8-22,86,86,86,75,75,75,69,69,69,30.05,30.05,11,11,18,0.00
2013-8-23,86,83,81,76,74,74,81,76,70,30.02,29.96,12,7,20,0.00
2013-8-24,85,82,78,74,73,71,86,74,67,30.10,29.98,8,5,15,0.00
2013-8-25,83,80,77,74,72,70,87,76,66,30.14,30.03,8,5,14,0.00
2013-8-26,85,78,73,74,72,70,93,81,66,30.09,30.01,9,4,18,0.00
2013-8-27,83,76,73,74,71,70,92,85,66,30.05,29.99,6,3,12,0.00
2013-8-28,84,81,76,74,71,68,84,71,58,30.03,29.96,13,6,22,0.00
2013-8-29,85,80,73,75,72,68,91,78,66,30.03,29.93,11,5,17,0.00
2013-8-30,87,82,76,75,73,70,91,75,58,30.00,29.90,14,5,23,0.00
2013-8-31,86,81,74,76,72,70,87,76,60,29.98,29.91,13,5,24,0.00